Location: Del Amo
(33.8464°N, 118.2104°W)
Time: 06:56:39
(UTC+00:00)

Explorer 7 - Visible Passes

Search period start: 19 September 2024 00:00
Search period end: 29 September 2024 00:00
Orbit: 462 x 609 km, 50.3° (Epoch: 19 September)

Date Brightness Start Highest point End Pass type
(mag) Time Alt. Az. Time Alt. Az. Time Alt. Az.
21 Sep 9.5 12:11:30 10° N 12:12:10 10° NNE 12:12:50 10° NNE visible
22 Sep 9.4 12:00:28 10° N 12:01:57 12° NNE 12:03:27 10° NE visible
23 Sep 9.3 11:49:49 10° N 11:51:43 14° NNE 11:53:43 10° ENE visible
24 Sep 9.0 11:40:22 15° N 11:41:25 17° NNE 11:43:49 10° ENE visible
25 Sep 8.9 11:31:03 20° NNE 11:31:05 20° NNE 11:33:48 10° ENE visible
25 Sep 6.7 13:07:11 10° WNW 13:10:42 49° SW 13:14:11 10° SSE visible
26 Sep 9.1 11:21:53 20° ENE 11:21:53 20° ENE 11:23:42 10° E visible
26 Sep 7.1 12:57:17 13° WNW 13:00:11 36° SW 13:03:31 10° SSE visible
27 Sep 9.6 11:12:52 14° E 11:12:52 14° E 11:13:29 10° E visible
27 Sep 7.5 12:48:17 21° W 12:49:37 27° SW 12:52:42 10° S visible
28 Sep 9.0 02:37:21 10° SE 02:37:42 10° SE 02:37:42 10° SE visible
28 Sep 8.0 12:39:24 20° SW 12:39:24 20° SW 12:41:44 10° S visible
